Content
SEND FEEDBACK

Daily
Averages
Monthly
Summary
United States of America

MERIZO, GUAM


Home > North America > United States > Guam
Elevation: 3 meters     Latitude: 13 14N     Longitude: 144 39E

WEATHER
 
SELECT A DAY
Number of Records: 342,429;   Date Range: 1/1/95 - 9/3/14
 
SHARE

PRINT THIS DATA

[ ← Previous Day ]
WEATHER ALMANAC - 14 SEPTEMBER, 2013
[ Next Day → ]
[ °F ]   °C
Weather ElementAverageHighLow
Temperature27.3 °C30 °C (12:58 pm)24.7 °C (5:58 am)
Dewpoint24.3 °C25 °C (7:23 am)22.6 °C (2:58 pm)
Humidity84.4 %100 % (7:23 am)68 % (2:58 pm)
Barometer1007.8 hPa1011.5 hPa (9:08 am)1004.1 hPa (2:58 am)
Wind Speed6.3 km/h20.4 km/h (2:13 pm)
Weather ElementAverage
Visibility16.1 km
Wind DirectionSSE (157.6 °)

Weather ElementTotal
Precipitation12.45 mm
Cooling Degree Days9.1 (Base 18.3)
Growing Degree Days17.4 (Base 10)
Averaged from 42 records on 14 September, 2013
WEATHER CONDITIONS BREAKOUT
WIND DIRECTION BREAKOUT
WEATHER BY HOUR - 14 SEPTEMBER, 2013
[ °F ]   °C
Local TimeTemperatureDewpointHumidityBarometerVisibilityWind DirectionWind SpeedGust SpeedPrecipitationEventsConditions
1:58 AM26 °C24.6 °C92 %1005.1 hPa16.1 kmWSW (250°)7.4 km/hOvercast
2:58 AM25.6 °C24.6 °C94 %1004.1 hPa16.1 kmWSW (250°)7.4 km/hOvercast
3:58 AM25.1 °C24 °C94 %1004.4 hPa16.1 kmSW (220°)5.6 km/hClear
4:58 AM24.9 °C23.9 °C94 %1004.4 hPa16.1 kmSW (230°)7.4 km/hClear
5:58 AM24.7 °C23.9 °C95 %1005.1 hPa16.1 kmSW (230°)5.6 km/hClear
6:58 AM25 °C24.1 °C95 %1005.8 hPa16.1 kmCalmScattered Clouds
7:03 AM25 °C24 °C94 %1009.8 hPa16.1 kmWest (260°)1.9 km/hMostly Cloudy
7:23 AM25 °C25 °C100 %1010.2 hPa16.1 kmCalmScattered Clouds
7:58 AM27.2 °C25 °C88 %1006.4 hPa16.1 kmWest (280°)5.6 km/hClear
8:58 AM28 °C25 °C84 %1006.8 hPa16.1 kmWSW (240°)9.3 km/hMostly Cloudy
9:08 AM28 °C25 °C84 %1011.5 hPa16.1 kmSouth (180°)13 km/hMostly Cloudy
9:13 AM28 °C25 °C84 %1011.2 hPa16.1 kmSouth (170°)9.3 km/hMostly Cloudy
9:23 AM28 °C25 °C84 %1011.2 hPa16.1 kmSouth (180°)11.1 km/hScattered Clouds
9:24 AM28 °C25 °C84 %1011.2 hPa16.1 kmSouth (180°)11.1 km/hRainLight Rain
9:58 AM26.1 °C24.4 °C90 %1007.1 hPa16.1 kmSW (230°)7.4 km/h9.65 mmRainLight Rain
9:59 AM26 °C24 °C89 %1011.2 hPa16.1 kmSW (230°)7.4 km/hMostly Cloudy
10:19 AM27 °C25 °C89 %1011.5 hPa16.1 kmSouth (170°)9.3 km/hMostly Cloudy
10:29 AM27 °C25 °C89 %1011.5 hPa16.1 kmSouth (170°)7.4 km/hMostly Cloudy
10:34 AM27 °C24 °C84 %1011.5 hPa16.1 kmSouth (180°)7.4 km/hMostly Cloudy
10:58 AM27.7 °C24.6 °C83 %1007.1 hPa16.1 kmSSW (200°)3.7 km/h0 mmScattered Clouds
11:58 AM28.8 °C24.1 °C76 %1006.4 hPa16.1 kmVariable5.6 km/hMostly Cloudy
12:58 PM30 °C24.1 °C70 %1005.8 hPa16.1 kmSouth (190°)7.4 km/hMostly Cloudy
1:28 PM30 °C25 °C74 %1009.5 hPa16.1 kmSSE (150°)9.3 km/hMostly Cloudy
1:56 PM28 °C24 °C79 %1009.1 hPa16.1 kmVariable1.9 km/hRainLight Rain
1:58 PM28 °C24 °C79 %1005.1 hPa16.1 kmVariable3.7 km/hRainLight Rain
2:08 PM28 °C24 °C79 %1009.1 hPa16.1 kmNW (320°)14.8 km/hRainLight Rain
2:13 PM27 °C23 °C79 %1009.1 hPa16.1 kmWest (280°)20.4 km/hRainRain
2:31 PM27 °C25 °C89 %1009.1 hPa16.1 kmNW (310°)11.1 km/hMostly Cloudy
2:58 PM29 °C22.6 °C68 %1004.7 hPa16.1 kmWNW (300°)7.4 km/h2.79 mmScattered Clouds
3:58 PM29.3 °C24.3 °C74 %1004.4 hPa16.1 kmSSE (160°)11.1 km/hMostly Cloudy
4:33 PM29 °C24 °C74 %1008.5 hPa16.1 kmSSE (150°)5.6 km/hMostly Cloudy
4:53 PM29 °C24 °C74 %1008.5 hPa16.1 kmEast (100°)3.7 km/hScattered Clouds
4:58 PM29.3 °C24.3 °C74 %1004.4 hPa16.1 kmVariable5.6 km/hScattered Clouds
5:28 PM29 °C24 °C74 %1008.5 hPa16.1 kmEast (90°)3.7 km/hMostly Cloudy
5:53 PM28 °C24 °C79 %1008.8 hPa16.1 kmENE (60°)1.9 km/hScattered Clouds
5:58 PM28.1 °C24.4 °C80 %1004.7 hPa16.1 kmCalmPartly Cloudy
6:58 PM27.3 °C24.2 °C83 %1005.4 hPa16.1 kmNW (310°)3.7 km/hPartly Cloudy
7:58 PM26.3 °C24.3 °C89 %1006.1 hPa16.1 kmNorth (350°)5.6 km/hPartly Cloudy
8:58 PM26.2 °C24.2 °C89 %1006.8 hPa16.1 kmCalmClear
9:58 PM26.4 °C24.4 °C89 %1007.1 hPa16.1 kmCalmClear
10:58 PM25.7 °C24.3 °C92 %1006.8 hPa16.1 kmCalmClear
11:58 PM25.8 °C24.2 °C91 %1005.8 hPa16.1 kmCalmClear
Hourly data recorded from PGUA, located 0 kilometers away from Merizo, Guam







STORIES FROM OUR PARTNERS